Time,TemperatureF,DewpointF,PressureIn,WindDirection,WindDirectionDegrees,WindSpeedMPH,WindSpeedGustMPH,Humidity,HourlyPrecipIn,Conditions,Clouds,dailyrainin,SoftwareType,DateUTC
2013-11-09 00:07:00,40.3,34.0,30.14,ESE,113,1.0,7.0,77,0.00,,,0.00,weatherlink.com 1.10,2013-11-09 05:07:00,
2013-11-09 00:22:00,40.6,34.0,30.14,SW,214,2.0,4.0,76,0.00,,,0.00,weatherlink.com 1.10,2013-11-09 05:22:00,
2013-11-09 00:37:00,40.9,34.0,30.13,SE,129,4.0,6.0,76,0.00,,,0.00,weatherlink.com 1.10,2013-11-09 05:37:00,
2013-11-09 00:52:00,41.1,33.0,30.12,SSW,207,0.0,8.0,74,0.00,,,0.00,weatherlink.com 1.10,2013-11-09 05:52:00,
2013-11-09 01:07:00,41.2,34.0,30.11,SSW,198,2.0,4.0,74,0.00,,,0.00,weatherlink.com 1.10,2013-11-09 06:07:00,
2013-11-09 01:22:00,41.3,34.0,30.10,SE,124,2.0,5.0,74,0.00,,,0.00,weatherlink.com 1.10,2013-11-09 06:22:00,
2013-11-09 01:37:00,41.4,33.0,30.09,SE,135,2.0,5.0,73,0.00,,,0.00,weatherlink.com 1.10,2013-11-09 06:37:00,
2013-11-09 01:52:00,41.6,33.0,30.08,South,188,3.0,6.0,72,0.00,,,0.00,weatherlink.com 1.10,2013-11-09 06:52:00,
2013-11-09 02:07:00,42.0,33.0,30.07,WNW,294,1.0,8.0,71,0.00,,,0.00,weatherlink.com 1.10,2013-11-09 07:07:00,
2013-11-09 02:22:00,42.4,33.0,30.06,South,190,0.0,8.0,69,0.00,,,0.00,weatherlink.com 1.10,2013-11-09 07:22:00,
2013-11-09 02:37:00,42.9,33.0,30.04,West,269,1.0,9.0,67,0.00,,,0.00,weatherlink.com 1.10,2013-11-09 07:37:00,
2013-11-09 02:52:00,43.7,33.0,30.04,SW,217,4.0,9.0,65,0.00,,,0.00,weatherlink.com 1.10,2013-11-09 07:52:00,
2013-11-09 03:07:00,44.4,32.0,30.03,South,179,8.0,13.0,62,0.00,,,0.00,weatherlink.com 1.10,2013-11-09 08:07:00,
2013-11-09 03:22:00,44.9,32.0,30.02,North,354,3.0,13.0,60,0.00,,,0.00,weatherlink.com 1.10,2013-11-09 08:22:00,
2013-11-09 03:37:00,45.0,32.0,30.01,SSE,152,5.0,12.0,60,0.00,,,0.00,weatherlink.com 1.10,2013-11-09 08:37:00,
2013-11-09 03:52:00,45.2,32.0,30.00,WSW,248,6.0,16.0,61,0.00,,,0.00,weatherlink.com 1.10,2013-11-09 08:52:00,
2013-11-09 04:07:00,45.3,32.0,29.99,South,178,5.0,12.0,59,0.00,,,0.00,weatherlink.com 1.10,2013-11-09 09:07:00,
2013-11-09 04:22:00,45.3,32.0,29.99,NW,312,3.0,13.0,60,0.00,,,0.00,weatherlink.com 1.10,2013-11-09 09:22:00,
2013-11-09 04:37:00,45.0,32.0,29.98,SSW,207,1.0,15.0,60,0.00,,,0.00,weatherlink.com 1.10,2013-11-09 09:37:00,
2013-11-09 04:53:00,44.7,32.0,29.97,SW,232,5.0,14.0,62,0.00,,,0.00,weatherlink.com 1.10,2013-11-09 09:53:00,
2013-11-09 05:08:00,44.4,32.0,29.96,West,266,3.0,12.0,62,0.00,,,0.00,weatherlink.com 1.10,2013-11-09 10:08:00,
2013-11-09 05:23:00,44.1,32.0,29.96,East,100,5.0,12.0,63,0.00,,,0.00,weatherlink.com 1.10,2013-11-09 10:23:00,
2013-11-09 05:38:00,44.0,32.0,29.96,WSW,243,5.0,10.0,64,0.00,,,0.00,weatherlink.com 1.10,2013-11-09 10:38:00,
2013-11-09 05:53:00,43.8,33.0,29.96,WNW,297,7.0,13.0,65,0.00,,,0.00,weatherlink.com 1.10,2013-11-09 10:53:00,
2013-11-09 06:08:00,43.9,33.0,29.95,WSW,240,1.0,11.0,65,0.00,,,0.00,weatherlink.com 1.10,2013-11-09 11:08:00,
2013-11-09 06:23:00,44.0,33.0,29.95,South,187,4.0,7.0,66,0.00,,,0.00,weatherlink.com 1.10,2013-11-09 11:23:00,
2013-11-09 06:38:00,44.1,33.0,29.95,ESE,120,3.0,8.0,66,0.00,,,0.00,weatherlink.com 1.10,2013-11-09 11:38:00,
2013-11-09 06:53:00,44.4,34.0,29.94,SE,127,2.0,16.0,66,0.00,,,0.00,weatherlink.com 1.10,2013-11-09 11:53:00,
2013-11-09 07:08:00,44.4,34.0,29.94,SW,214,3.0,12.0,66,0.00,,,0.00,weatherlink.com 1.10,2013-11-09 12:08:00,
2013-11-09 07:23:00,44.5,34.0,29.94,South,176,6.0,9.0,67,0.00,,,0.00,weatherlink.com 1.10,2013-11-09 12:23:00,
2013-11-09 07:38:00,44.6,35.0,29.94,West,264,1.0,9.0,68,0.00,,,0.00,weatherlink.com 1.10,2013-11-09 12:38:00,
2013-11-09 07:53:00,44.6,35.0,29.94,West,281,1.0,8.0,69,0.00,,,0.00,weatherlink.com 1.10,2013-11-09 12:53:00,
2013-11-09 08:08:00,44.7,35.0,29.93,West,280,0.0,7.0,69,0.00,,,0.00,weatherlink.com 1.10,2013-11-09 13:08:00,
2013-11-09 08:23:00,45.7,36.0,29.93,WNW,296,3.0,12.0,68,0.00,,,0.00,weatherlink.com 1.10,2013-11-09 13:23:00,
2013-11-09 08:38:00,46.2,36.0,29.93,WNW,296,11.0,14.0,68,0.00,,,0.00,weatherlink.com 1.10,2013-11-09 13:38:00,
2013-11-09 08:53:00,47.1,36.0,29.93,SW,228,2.0,12.0,66,0.00,,,0.00,weatherlink.com 1.10,2013-11-09 13:53:00,
2013-11-09 09:08:00,48.0,37.0,29.92,SE,127,4.0,8.0,66,0.00,,,0.00,weatherlink.com 1.10,2013-11-09 14:08:00,
2013-11-09 09:23:00,48.7,37.0,29.92,WSW,237,4.0,16.0,65,0.00,,,0.00,weatherlink.com 1.10,2013-11-09 14:23:00,
2013-11-09 09:38:00,49.3,38.0,29.91,SW,226,11.0,12.0,65,0.00,,,0.00,weatherlink.com 1.10,2013-11-09 14:38:00,
2013-11-09 09:53:00,49.1,38.0,29.91,WSW,246,3.0,12.0,66,0.00,,,0.00,weatherlink.com 1.10,2013-11-09 14:53:00,
2013-11-09 10:08:00,50.3,39.0,29.91,West,263,4.0,10.0,65,0.00,,,0.00,weatherlink.com 1.10,2013-11-09 15:08:00,
2013-11-09 10:23:00,50.1,39.0,29.90,SE,142,2.0,9.0,66,0.00,,,0.00,weatherlink.com 1.10,2013-11-09 15:23:00,
2013-11-09 10:38:00,49.9,39.0,29.89,WNW,288,0.0,12.0,66,0.00,,,0.00,weatherlink.com 1.10,2013-11-09 15:38:00,
2013-11-09 10:53:00,49.9,39.0,29.89,West,274,1.0,10.0,67,0.00,,,0.00,weatherlink.com 1.10,2013-11-09 15:53:00,
2013-11-09 11:08:00,50.3,40.0,29.89,WNW,290,2.0,8.0,67,0.00,,,0.00,weatherlink.com 1.10,2013-11-09 16:08:00,
2013-11-09 11:23:00,52.3,41.0,29.89,WSW,245,5.0,11.0,66,0.00,,,0.00,weatherlink.com 1.10,2013-11-09 16:23:00,
2013-11-09 11:38:00,52.8,42.0,29.89,NE,40,5.0,11.0,66,0.00,,,0.00,weatherlink.com 1.10,2013-11-09 16:38:00,
2013-11-09 11:53:00,52.6,42.0,29.89,North,5,3.0,12.0,67,0.00,,,0.00,weatherlink.com 1.10,2013-11-09 16:53:00,
2013-11-09 12:08:00,53.9,42.0,29.89,SW,217,6.0,11.0,64,0.00,,,0.00,weatherlink.com 1.10,2013-11-09 17:08:00,
2013-11-09 12:23:00,54.1,42.0,29.89,WNW,284,3.0,13.0,64,0.00,,,0.00,weatherlink.com 1.10,2013-11-09 17:23:00,
2013-11-09 12:38:00,54.1,42.0,29.88,ESE,113,2.0,13.0,63,0.00,,,0.00,weatherlink.com 1.10,2013-11-09 17:38:00,
2013-11-09 12:54:00,54.3,42.0,29.88,WSW,242,2.0,11.0,63,0.00,,,0.00,weatherlink.com 1.10,2013-11-09 17:54:00,
2013-11-09 13:09:00,54.0,42.0,29.88,WNW,284,2.0,7.0,63,0.00,,,0.00,weatherlink.com 1.10,2013-11-09 18:09:00,
2013-11-09 13:24:00,54.3,42.0,29.88,NW,324,2.0,19.0,63,0.00,,,0.00,weatherlink.com 1.10,2013-11-09 18:24:00,
2013-11-09 13:39:00,53.7,42.0,29.88,WNW,297,2.0,13.0,64,0.00,,,0.00,weatherlink.com 1.10,2013-11-09 18:39:00,
2013-11-09 13:54:00,54.4,42.0,29.88,SW,224,5.0,14.0,64,0.00,,,0.00,weatherlink.com 1.10,2013-11-09 18:54:00,
2013-11-09 14:09:00,53.2,42.0,29.89,WSW,252,9.0,11.0,66,0.00,,,0.00,weatherlink.com 1.10,2013-11-09 19:09:00,
2013-11-09 14:24:00,53.0,41.0,29.88,SSW,205,5.0,9.0,65,0.00,,,0.00,weatherlink.com 1.10,2013-11-09 19:24:00,
2013-11-09 14:34:00,52.9,42.0,29.89,NNE,20,2.0,8.0,66,0.00,,,0.00,weatherlink.com 1.10,2013-11-09 19:34:00,
2013-11-09 14:49:00,52.9,42.0,29.89,WSW,248,4.0,12.0,67,0.00,,,0.00,weatherlink.com 1.10,2013-11-09 19:49:00,
2013-11-09 15:04:00,53.0,42.0,29.89,NNW,335,4.0,7.0,67,0.00,,,0.00,weatherlink.com 1.10,2013-11-09 20:04:00,
2013-11-09 15:19:00,53.3,42.0,29.90,NW,304,3.0,11.0,65,0.00,,,0.00,weatherlink.com 1.10,2013-11-09 20:19:00,
2013-11-09 15:34:00,53.3,42.0,29.91,West,275,1.0,6.0,65,0.00,,,0.00,weatherlink.com 1.10,2013-11-09 20:34:00,
2013-11-09 15:49:00,53.1,42.0,29.91,NW,308,4.0,7.0,66,0.00,,,0.00,weatherlink.com 1.10,2013-11-09 20:49:00,
2013-11-09 16:04:00,53.0,42.0,29.91,WNW,302,1.0,9.0,66,0.00,,,0.00,weatherlink.com 1.10,2013-11-09 21:04:00,
2013-11-09 16:19:00,53.0,42.0,29.91,West,261,0.0,7.0,66,0.00,,,0.00,weatherlink.com 1.10,2013-11-09 21:19:00,
2013-11-09 16:34:00,53.0,42.0,29.91,WNW,283,3.0,8.0,67,0.00,,,0.00,weatherlink.com 1.10,2013-11-09 21:34:00,
2013-11-09 16:49:00,52.8,42.0,29.91,West,264,0.0,5.0,67,0.00,,,0.00,weatherlink.com 1.10,2013-11-09 21:49:00,
2013-11-09 17:04:00,52.9,42.0,29.91,NNW,342,0.0,5.0,67,0.00,,,0.00,weatherlink.com 1.10,2013-11-09 22:04:00,
2013-11-09 17:19:00,53.0,41.0,29.92,North,353,2.0,9.0,65,0.00,,,0.00,weatherlink.com 1.10,2013-11-09 22:19:00,
2013-11-09 17:34:00,52.9,42.0,29.92,NNW,341,2.0,6.0,66,0.00,,,0.00,weatherlink.com 1.10,2013-11-09 22:34:00,
2013-11-09 17:49:00,52.6,41.0,29.92,NNW,333,1.0,8.0,66,0.00,,,0.00,weatherlink.com 1.10,2013-11-09 22:49:00,
2013-11-09 18:04:00,52.7,42.0,29.93,WSW,249,3.0,12.0,66,0.00,,,0.00,weatherlink.com 1.10,2013-11-09 23:04:00,
2013-11-09 18:19:00,52.5,42.0,29.93,WNW,302,4.0,14.0,67,0.00,,,0.00,weatherlink.com 1.10,2013-11-09 23:19:00,
2013-11-09 18:34:00,52.2,42.0,29.95,North,354,1.0,8.0,68,0.00,,,0.00,weatherlink.com 1.10,2013-11-09 23:34:00,
2013-11-09 18:49:00,51.6,42.0,29.95,NNE,14,3.0,7.0,70,0.00,,,0.00,weatherlink.com 1.10,2013-11-09 23:49:00,
2013-11-09 19:04:00,50.9,42.0,29.96,NW,307,2.0,9.0,71,0.00,,,0.00,weatherlink.com 1.10,2013-11-10 00:04:00,
2013-11-09 19:19:00,50.5,41.0,29.96,WSW,255,1.0,5.0,71,0.00,,,0.00,weatherlink.com 1.10,2013-11-10 00:19:00,
2013-11-09 19:34:00,49.8,41.0,29.97,West,280,1.0,6.0,72,0.00,,,0.00,weatherlink.com 1.10,2013-11-10 00:34:00,
2013-11-09 19:49:00,49.5,40.0,29.97,NW,306,2.0,7.0,71,0.00,,,0.00,weatherlink.com 1.10,2013-11-10 00:49:00,
2013-11-09 20:04:00,49.0,40.0,29.97,North,351,3.0,6.0,71,0.00,,,0.00,weatherlink.com 1.10,2013-11-10 01:04:00,
2013-11-09 20:19:00,48.6,40.0,29.97,NW,321,1.0,5.0,72,0.00,,,0.00,weatherlink.com 1.10,2013-11-10 01:19:00,
2013-11-09 20:34:00,49.4,40.0,29.98,WNW,284,1.0,6.0,71,0.00,,,0.00,weatherlink.com 1.10,2013-11-10 01:34:00,
2013-11-09 20:49:00,49.9,40.0,29.98,NW,307,1.0,6.0,70,0.00,,,0.00,weatherlink.com 1.10,2013-11-10 01:49:00,
2013-11-09 21:04:00,50.0,41.0,29.98,NNW,333,9.0,12.0,70,0.00,,,0.00,weatherlink.com 1.10,2013-11-10 02:04:00,
2013-11-09 21:19:00,49.9,41.0,29.98,NW,309,3.0,7.0,71,0.00,,,0.00,weatherlink.com 1.10,2013-11-10 02:19:00,
2013-11-09 21:34:00,49.9,39.0,29.98,WSW,248,4.0,15.0,67,0.00,,,0.00,weatherlink.com 1.10,2013-11-10 02:34:00,
2013-11-09 21:49:00,49.1,39.0,29.98,NW,326,6.0,7.0,69,0.00,,,0.00,weatherlink.com 1.10,2013-11-10 02:49:00,
2013-11-09 22:04:00,48.3,39.0,29.98,NNW,328,1.0,9.0,69,0.00,,,0.00,weatherlink.com 1.10,2013-11-10 03:04:00,
2013-11-09 22:19:00,47.5,39.0,29.99,WNW,293,1.0,8.0,71,0.00,,,0.00,weatherlink.com 1.10,2013-11-10 03:19:00,
2013-11-09 22:34:00,47.3,38.0,29.99,NW,312,1.0,10.0,70,0.00,,,0.00,weatherlink.com 1.10,2013-11-10 03:34:00,
2013-11-09 22:49:00,46.8,37.0,29.99,NW,318,3.0,10.0,70,0.00,,,0.00,weatherlink.com 1.10,2013-11-10 03:49:00,
2013-11-09 23:04:00,47.3,38.0,29.99,South,172,3.0,13.0,69,0.00,,,0.00,weatherlink.com 1.10,2013-11-10 04:04:00,
2013-11-09 23:20:00,47.3,38.0,29.99,West,264,3.0,8.0,70,0.00,,,0.00,weatherlink.com 1.10,2013-11-10 04:20:00,
2013-11-09 23:34:00,46.9,36.0,30.00,NNW,333,4.0,17.0,66,0.00,,,0.00,weatherlink.com 1.10,2013-11-10 04:34:00,
2013-11-09 23:49:00,45.6,33.0,30.00,SW,233,1.0,10.0,62,0.00,,,0.00,weatherlink.com 1.10,2013-11-10 04:49:00,